Regional Weather Roundup
Issued by NWS

Home | Current Version | Previous Version | Graphics & Text | Print | Product List | Glossary On
Versions: 1 2 3 4 5 6 7 8 9 10 11 12 13 14 15 16 17 18 19 20 21 22 23 24 25 26 27 28 29 30 31 32 33 34 35 36 37 38 39 40 41 42 43 44 45 46 47 48 49 50
000
ASUS45 KCYS 311610
RWRWY

WYOMING REGIONAL WEATHER ROUNDUP
NATIONAL WEATHER SERVICE CHEYENNE WY
900 AM MST SAT JAN 31 2015

NOTE:  "FAIR" INDICATES FEW OR NO CLOUDS BELOW 12,000 FEET
WITH NO SIGNIFICANT WEATHER AND/OR OBSTRUCTIONS TO VISIBILITY.

WYZ001-311700-
YELLOWSTONE NATIONAL PARK

CITY           SKY/WX    TMP DP  RH WIND       PRES   REMARKS
LK YELLOWSTONE   N/A     -3  -7  82 CALM      30.03S
W YELLOWSTONE  NOT AVBL

$$
WYZ002>013-054>058-071-098>099-311700-
NORTHERN WYOMING

CITY           SKY/WX    TMP DP  RH WIND       PRES   REMARKS
JACKSON        SUNNY      1   0  92 N13       30.05R WCI -16
CODY           FAIR      27  19  74 S3        29.93F
GREYBULL       FOG       25  23  92 NE3       29.96S VSB<1/4
WORLAND        HAZE      23  18  81 CALM      29.94S VSB<1/4
SHERIDAN       FAIR      26  20  77 S5        29.94R WCI  20
BUFFALO        FAIR      32  17  54 NW15G21   29.90R WCI  22
GILLETTE       FAIR      33  24  69 S14       29.90S WCI  23
HULETT           N/A    N/A N/A N/A MISG        N/A
NEWCASTLE      FAIR      28  23  80 CALM      29.95S

$$
WYZ014>020-022>026-101>103-311700-
CENTRAL WYOMING

CITY           SKY/WX    TMP DP  RH WIND       PRES   REMARKS
BIG PINEY      FAIR      21  18  88 SW5       29.95F WCI  15
PINEDALE       FAIR      16   5  62 NW9       29.95S WCI   4
DUBOIS         FAIR      27   0  31 NW13      29.90S WCI  16
LANDER         FAIR      26  20  77 CALM      29.88F
RIVERTON       FOG       26  24  92 CALM      29.90F VSB 1/4
CASPER         FAIR      29  23  78 SW12      29.89F WCI  19
DOUGLAS        PTSUNNY   30  27  88 CALM      29.92F

$$
WYZ021-027>030-104>119-311700-
SOUTHERN WYOMING

CITY           SKY/WX    TMP DP  RH WIND       PRES   REMARKS
EVANSTON       FAIR      30  26  85 W3        30.00R
KEMMERER       CLOUDY    28  27  93 W10       29.98F FOG     WCI  19
FORT BRIDGER   FAIR      30  29  99 W7        30.01F WCI  23
ROCK SPRINGS   PTSUNNY   26  25  96 W9        29.96R WCI  17
DIXON          LGT SNOW  32  30  93 W5        29.95R WCI  27
RAWLINS        PTSUNNY   30  25  81 SW7       29.91S WCI  23
SARATOGA       LGT SNOW  30  28  93 NW6       29.91S WCI  24
LARAMIE        FLURRIES  28  25  88 CALM      29.88R
CHEYENNE       CLOUDY    30  25  81 N10       29.89S WCI  21
TORRINGTON     CLOUDY    35  25  66 CALM      29.93S
PINE BLUFFS    CLOUDY    32  27  80 N10       29.91F WCI  24

$$



USA.gov is the U.S. government's official web portal to all federal, state and local government web resources and services.